N9DRW Weather Reports


Display with metric or nautical units.
time (UTC)temp
F
wind
direction
speed
MPH
gust
MPH
rain 1hr
in
rain 24hr
in
rain mn
in
humidity
%
barometer
mb
20240523100206 55 159 1.0 5.0 0.00 0.17 0.00 81 998.0
20240523095206 55 181 0.0 1.0 0.00 0.18 0.00 81 998.0
20240523094205 55 182 1.0 3.0 0.00 0.18 0.00 82 998.0
20240523093205 55 211 1.0 3.0 0.00 0.19 0.00 81 998.0
20240523092206 55 219 1.0 6.0 0.00 0.20 0.00 82 998.0
20240523091206 54 230 1.0 3.0 0.00 0.20 0.00 83 998.0
20240523090205 55 215 0.0 0.0 0.00 0.21 0.00 82 998.0
20240523085206 55 215 0.0 3.0 0.00 0.22 0.00 81 998.0
20240523084205 55 228 0.0 0.0 0.00 0.22 0.00 82 998.0
20240523083208 55 228 0.0 0.0 0.00 0.23 0.00 81 998.0
20240523082206 55 228 0.0 0.0 0.00 0.24 0.00 80 998.0
20240523081205 55 230 1.0 3.0 0.00 0.25 0.00 81 998.0
20240523080205 55 208 0.0 0.0 0.00 0.25 0.00 79 998.0
20240523075206 56 208 0.0 0.0 0.00 0.26 0.00 78 998.0
20240523074206 56 208 0.0 0.0 0.00 0.27 0.00 77 998.0
20240523073205 57 208 0.0 3.0 0.00 0.27 0.00 76 998.0
20240523072205 57 225 1.0 5.0 0.00 0.28 0.00 76 998.0
20240523071205 57 207 1.0 2.0 0.00 0.29 0.00 77 998.0
20240523070205 57 181 1.0 3.0 0.00 0.30 0.00 76 998.0
20240523065205 57 181 1.0 2.0 0.00 0.31 0.00 76 998.0
20240523064206 57 146 1.0 5.0 0.00 0.32 0.00 76 998.0
20240523063207 58 199 0.0 3.0 0.00 0.33 0.00 75 998.0
20240523062205 58 231 2.0 5.0 0.00 0.34 0.00 76 998.0
20240523061205 58 195 0.0 3.0 0.00 0.35 0.00 75 998.0
20240523060205 58 211 2.0 6.0 0.00 0.36 0.00 75 998.0
20240523055206 58 168 1.0 5.0 0.00 0.37 0.00 74 998.0
20240523054205 59 287 0.0 5.0 0.00 0.39 0.00 74 998.0
20240523053206 59 224 3.0 7.0 0.00 0.40 0.00 73 998.0
20240523052205 59 241 2.0 5.0 0.00 0.41 0.00 73 998.0
20240523051206 59 225 2.0 5.0 0.00 0.42 0.00 72 998.0
20240523050205 60 196 0.0 2.0 0.00 0.43 0.00 70 998.0
20240523045205 60 192 0.0 6.0 0.00 0.45 0.44 70 998.0
20240523044206 60 201 2.0 5.0 0.00 0.46 0.44 69 998.0
20240523043208 60 199 2.0 7.0 0.00 0.47 0.44 69 998.0
20240523042205 60 205 1.0 5.0 0.00 0.49 0.44 68 998.0
20240523041205 60 236 1.0 3.0 0.00 0.50 0.44 68 998.0
20240523040206 60 260 2.0 6.0 0.00 0.52 0.44 68 998.0
20240523035205 60 202 0.0 0.0 0.00 0.53 0.44 69 998.0
20240523034205 60 204 0.0 1.0 0.00 0.55 0.44 69 998.0
20240523033206 60 184 0.0 0.0 0.00 0.57 0.44 70 998.0
20240523032205 59 184 0.0 0.0 0.00 0.59 0.44 71 998.0
20240523031205 60 184 0.0 1.0 0.00 0.60 0.44 70 998.0
20240523030205 60 178 0.0 0.0 0.00 0.62 0.44 70 998.0
20240523025205 61 178 0.0 2.0 0.00 0.64 0.44 68 998.0
20240523024205 62 261 0.0 0.0 0.00 0.66 0.44 66 998.0
20240523023206 62 261 0.0 2.0 0.00 0.68 0.44 65 998.0
20240523022206 63 194 1.0 3.0 0.00 0.71 0.44 65 998.0
20240523021205 63 157 0.0 3.0 0.00 0.73 0.44 64 998.0
20240523020205 63 216 0.0 0.0 0.00 0.75 0.44 64 998.0
20240523015205 63 216 0.0 0.0 0.00 0.77 0.44 63 998.0
20240523014205 64 216 0.0 0.0 0.00 0.79 0.44 62 998.0
20240523013205 64 216 0.0 0.0 0.00 0.81 0.44 61 998.0
20240523012206 64 216 0.0 1.0 0.00 0.82 0.44 60 998.0
20240523011205 65 355 0.0 2.0 0.00 0.84 0.44 58 998.0
20240523010205 66 264 0.0 1.0 0.00 0.87 0.44 56 998.0
20240523005205 67 287 0.0 2.0 0.00 0.88 0.44 55 998.0
20240523004205 68 272 0.0 3.0 0.00 0.90 0.44 52 998.0
20240523003208 68 252 3.0 7.0 0.00 0.91 0.44 51 998.0
20240523002206 67 192 0.0 7.0 0.00 0.91 0.44 50 998.0
20240523001205 68 268 2.0 7.0 0.00 0.91 0.44 50 998.0
20240523000205 68 194 0.0 2.0 0.00 0.91 0.44 50 998.0
20240522235205 68 198 1.0 8.0 0.00 0.91 0.44 50 998.0
20240522234206 68 246 3.0 9.0 0.00 0.91 0.44 48 998.0
20240522233205 68 188 2.0 8.0 0.00 0.91 0.44 48 998.0
20240522232205 68 232 4.0 13.0 0.00 0.91 0.44 46 998.0
20240522231207 69 288 5.0 12.0 0.00 0.91 0.44 44 998.0
20240522230205 71 280 8.0 16.0 0.00 0.91 0.44 44 998.0
20240522225206 71 269 6.0 14.0 0.00 0.91 0.44 45 998.0
20240522224205 69 230 4.0 9.0 0.00 0.91 0.44 47 998.0
20240522223206 69 234 5.0 10.0 0.00 0.91 0.44 46 998.0
20240522222206 69 254 5.0 13.0 0.00 0.91 0.44 45 998.0
20240522221206 70 238 5.0 17.0 0.00 0.91 0.44 43 998.0
20240522220205 71 265 6.0 21.0 0.00 0.91 0.44 41 998.0
20240522215205 71 281 6.0 23.0 0.00 0.91 0.44 41 998.0
20240522214205 71 279 8.0 16.0 0.00 0.91 0.44 41 998.0
20240522213206 71 294 7.0 21.0 0.00 0.91 0.44 42 998.0
20240522212205 71 245 6.0 16.0 0.00 0.92 0.44 44 998.0
20240522211206 71 255 9.0 18.0 0.00 0.92 0.44 42 998.0
20240522210206 70 270 6.0 18.0 0.00 0.92 0.44 43 998.0
20240522205205 70 250 6.0 15.0 0.00 0.92 0.44 44 998.0
20240522204206 70 294 5.0 14.0 0.00 0.92 0.44 44 998.0
20240522203208 70 290 7.0 15.0 0.00 0.92 0.44 43 998.0
20240522202205 71 289 6.0 17.0 0.00 0.92 0.44 45 998.0
20240522201206 72 238 7.0 17.0 0.00 0.92 0.44 43 998.0
20240522200205 71 244 7.0 16.0 0.00 0.92 0.44 43 998.0
20240522195206 70 238 6.0 20.0 0.00 0.92 0.44 47 998.0
20240522194206 71 260 7.0 20.0 0.00 0.92 0.44 44 998.0
20240522193205 70 320 5.0 14.0 0.00 0.92 0.44 49 998.0
20240522192205 70 210 5.0 17.0 0.00 0.92 0.44 48 998.0
20240522191206 70 279 5.0 17.0 0.00 0.92 0.44 49 998.0
20240522190205 68 291 6.0 16.0 0.00 0.92 0.44 51 998.0
20240522185205 68 265 7.0 17.0 0.00 0.92 0.44 51 998.0
20240522184206 68 219 7.0 16.0 0.00 0.92 0.44 52 998.0
20240522183205 67 272 5.0 15.0 0.00 0.92 0.44 56 998.0
20240522182206 67 289 6.0 25.0 0.00 0.92 0.44 55 998.0
20240522181205 68 242 7.0 21.0 0.00 0.92 0.44 53 998.0
20240522180206 68 278 7.0 18.0 0.00 0.92 0.44 54 998.0
20240522175206 67 232 7.0 23.0 0.00 0.92 0.44 55 998.0
20240522174206 67 277 10.0 20.0 0.00 0.92 0.44 54 998.0
20240522173205 67 235 9.0 18.0 0.00 0.92 0.44 57 998.0
20240522172205 66 262 8.0 21.0 0.00 0.92 0.44 57 998.0
20240522171205 65 291 6.0 15.0 0.00 0.92 0.44 60 998.0
20240522170206 64 236 7.0 16.0 0.00 0.92 0.44 62 998.0
20240522165205 64 277 6.0 17.0 0.01 0.92 0.44 62 998.0
20240522164206 64 267 5.0 17.0 0.01 0.92 0.44 64 998.0
20240522163208 63 275 7.0 16.0 0.01 0.92 0.44 66 998.0
20240522162205 62 264 9.0 18.0 0.02 0.92 0.44 66 998.0
20240522161205 63 254 6.0 14.0 0.02 0.92 0.44 69 998.0
20240522160205 62 264 7.0 21.0 0.02 0.92 0.44 69 998.0
20240522155207 61 255 6.0 20.0 0.02 0.91 0.43 71 998.0
20240522154206 61 213 6.0 14.0 0.02 0.91 0.43 73 998.0
20240522153205 60 237 6.0 17.0 0.02 0.91 0.43 76 998.0
20240522152205 60 234 7.0 16.0 0.02 0.90 0.42 76 998.0
20240522151206 59 239 9.0 17.0 0.02 0.90 0.42 78 998.0
20240522150205 58 252 8.0 17.0 0.03 0.90 0.42 80 998.0
20240522145206 59 232 7.0 21.0 0.02 0.89 0.41 80 998.0
20240522144206 59 235 6.0 16.0 0.02 0.89 0.41 78 998.0
20240522143205 57 221 6.0 18.0 0.03 0.89 0.41 82 998.0
20240522142206 57 239 9.0 18.0 0.02 0.88 0.40 83 998.0
20240522141205 57 246 6.0 22.0 0.03 0.88 0.40 84 998.0
20240522140205 57 257 8.0 15.0 0.02 0.87 0.39 84 998.0
20240522135206 57 234 6.0 17.0 0.03 0.87 0.39 84 998.0
20240522134206 57 224 6.0 16.0 0.03 0.87 0.39 84 998.0
20240522133205 57 257 7.0 15.0 0.03 0.86 0.38 85 998.0
20240522132205 58 241 6.0 12.0 0.03 0.86 0.38 84 998.0
20240522131205 57 243 6.0 16.0 0.03 0.85 0.37 84 998.0
20240522130205 57 207 5.0 16.0 0.03 0.85 0.37 85 998.0
20240522125206 57 237 5.0 15.0 0.03 0.84 0.36 87 998.0
20240522124206 57 252 6.0 17.0 0.03 0.84 0.36 87 998.0
20240522123208 57 224 5.0 18.0 0.03 0.83 0.35 87 998.0
20240522122206 57 246 6.0 16.0 0.03 0.83 0.35 88 998.0
20240522121206 57 247 6.0 16.0 0.03 0.82 0.34 88 998.0
20240522120205 57 242 6.0 16.0 0.03 0.82 0.34 87 998.0
20240522115205 57 243 6.0 14.0 0.03 0.81 0.33 88 998.0
20240522114206 57 249 6.0 16.0 0.04 0.81 0.33 87 998.0
20240522113206 57 236 9.0 15.0 0.03 0.80 0.32 87 998.0
20240522112207 57 241 6.0 17.0 0.04 0.81 0.32 88 998.0
20240522111205 57 256 5.0 15.0 0.04 0.81 0.31 88 998.0
20240522110205 57 260 6.0 16.0 0.04 0.81 0.31 88 998.0
20240522105205 57 220 5.0 13.0 0.04 0.81 0.30 88 998.0
20240522104206 57 216 7.0 14.0 0.03 0.81 0.29 88 998.0
20240522103205 57 212 5.0 12.0 0.04 0.82 0.29 88 998.0
20240522102208 57 238 6.0 14.0 0.04 0.82 0.28 88 998.0
20240522101211 57 217 7.0 15.0 0.03 0.82 0.27 89 998.0